Date,TemperatureHighF,TemperatureAvgF,TemperatureLowF,DewpointHighF,DewpointAvgF,DewpointLowF,HumidityHigh,HumidityAvg,HumidityLow,PressureMaxIn,PressureMinIn,WindSpeedMaxMPH,WindSpeedAvgMPH,GustSpeedMaxMPH,PrecipitationSumIn
2013-2-1,20.5,8.5,-1.4,16.4,-0.4,-9.1,84,67,56,30.48,30.19,13,3,19,0.00
2013-2-2,26.0,20.6,16.1,21.9,14.4,7.9,89,77,64,30.19,30.05,5,1,13,0.00
2013-2-3,27.9,22.1,16.9,20.7,14.9,11.9,92,74,56,30.15,29.98,12,2,19,0.00
2013-2-4,33.7,25.9,18.0,24.0,18.7,13.9,84,74,64,30.00,29.80,8,1,14,0.01
2013-2-5,39.0,29.4,17.5,30.0,23.6,13.2,88,79,67,30.10,29.86,8,2,12,0.00
2013-2-6,42.3,31.6,20.4,31.9,26.4,18.4,95,82,64,30.21,30.01,6,2,11,0.00
2013-2-7,36.4,35.0,31.9,35.9,33.6,30.4,98,95,85,30.06,29.86,5,2,10,0.75
2013-2-8,31.9,28.1,25.5,30.4,23.3,21.0,94,82,76,30.39,30.07,4,1,9,0.00
2013-2-9,35.6,30.2,25.5,29.8,25.1,21.3,88,81,71,30.39,30.00,7,3,13,0.00
2013-2-10,48.9,41.0,34.0,46.6,37.5,29.4,97,88,61,30.02,29.41,10,5,29,0.47
2013-2-11,37.9,32.1,28.4,29.7,23.2,21.2,78,69,64,30.13,29.60,15,6,30,0.01
2013-2-12,39.3,31.0,26.7,26.1,23.4,21.1,88,74,53,30.15,29.93,4,1,10,0.00
2013-2-13,45.9,34.5,24.8,31.3,27.4,22.3,91,76,54,29.93,29.73,4,1,11,0.00
2013-2-14,39.2,35.8,30.7,31.5,29.4,26.1,89,78,66,30.04,29.69,11,3,18,0.00
2013-2-15,33.2,25.5,19.1,26.1,14.2,8.8,86,63,39,30.27,30.05,10,4,19,0.00
2013-2-16,28.4,19.8,10.8,14.0,9.9,5.1,79,66,53,30.27,30.17,10,2,14,0.00
2013-2-17,36.2,25.3,13.2,22.8,14.7,6.6,77,65,47,30.22,29.87,7,1,17,0.00
2013-2-18,52.2,38.4,24.1,45.1,31.8,21.3,96,78,59,29.87,29.47,10,3,21,0.50
2013-2-19,22.6,15.5,9.4,13.2,7.6,2.1,82,71,60,30.33,29.84,13,5,19,0.00
2013-2-20,21.3,12.7,2.6,10.7,4.5,-3.9,78,69,59,30.48,30.34,6,1,9,0.13
2013-2-21,28.1,12.6,12.2,21.8,-25.8,-99.9,83,51,74,30.39,29.88,12,-242,12,0.00
2013-2-22,29.2,0.5,27.5,-99.9,-99.9,-99.9,0,0,100,29.99,29.72,13,-604,13,0.00
2013-2-23,63.9,8.9,17.4,19.7,-61.6,-99.9,81,26,65,30.02,29.91,6,-425,10,0.03
2013-2-24,38.5,14.8,13.0,23.9,-33.8,-99.9,90,45,55,30.13,30.00,5,-11,6,0.00
2013-2-25,42.7,11.0,25.7,31.4,-75.3,-99.9,73,12,55,30.12,29.83,7,-252,8,0.00
2013-2-26,31.2,1.1,31.2,-99.9,-99.9,-99.9,0,0,100,29.83,29.47,14,-531,14,0.06
2013-2-27,31.3,7.5,28.7,28.8,-89.3,-99.9,97,8,11,29.83,29.59,7,-171,7,0.00
2013-2-28,32.5,7.2,30.0,31.5,-91.8,-99.9,96,6,95,30.09,29.78,6,-182,8,0.26